English version Home page |
Updated on March 6, 2020 |
|
軌道要素Epoch 2017 Oct. 14.0 TT = JDT 2458040.5 T 2017 Oct. 12.68009 TT MPCW q 1.7159749 (2000.0) P Q n 0.15204336 Peri. 336.33728 +0.87879148 -0.45312364 a 3.4766242 Node 51.46122 +0.46267092 +0.73220256 e 0.5064250 Incl. 11.03232 +0.11688093 +0.50848636 P 6.48 From 747 observations 2004 July 16-2018 Mar. 9, mean residual 0".6.
|
星図
|
光度変化m1 = 10.0 + 5 logΔ + 25.0 log r(t - 25)
|
軌道要素はM.P.E.C. 2018-F152に掲載されたものです。
|